Location: Newark
(12.4436°N, 0.6167°W)
Time: 01:31:13
(UTC+00:00)

Transit 2A - Pass Details

Date: 13 December 2019
Orbit: 601 x 958 km, 66.7° (Epoch: 23 January)

Event Time Altitude Azimuth Distance (km) Brightness Sun altitude
Rises 17:23:31 0° 309° (NW) 3,039 9.5 2.6°
Reaches altitude 10° 17:26:37 10° 287° (WNW) 2,191 9.2 1.9°
Maximum altitude 17:29:34 16° 250° (WSW) 1,892 10.0 1.2°
Drops below altitude 10° 17:32:40 10° 214° (SW) 2,331 9.6 0.5°
Sets 17:36:09 0° 193° (SSW) 3,341 9.9 -0.3°
